Zurück zum Katalog

SL-8 R/B

AktivPO
NORAD 21090·ROCKET BODY·🇷🇺 Russia

Gestartet Feb 5, 1991 von Plesetsk Cosmodrome

Loading…

Nächste Überflüge (nächste 24 Stunden)

TLE

AktuellSource: Space-Track

Epoche: Sep 14, 2026, 08:28 UTC

1 21090U 91007B   26257.35342874 -.00000042  00000-0 -58323-4 0  9990
2 21090  82.9168 243.8026 0019625 319.9407  40.0301 13.76688572788171

Verfolge SL-8 R/B in Echtzeit mit AllMySat

Download on the App Store